• în România
  • Lista ţărilor
  • Pe 7 zile
  • Temperatura apei
  • Hartă satelitară
  • Meteo pe hartă
  • Widget-uri
  • user-avatar
    Intrare

    Meteo pe oră la Karlovac

    Astăzi, 19 Septembrie, Miercuri

    Timp Temperatura Precipitaţii Vânt Presiune Umiditate
    00:00 +16°C° 0 mm 0 m/s 743 mmHg 77%
    01:00 +16°C° 0 mm 0 m/s 743 mmHg 78%
    02:00 +16°C° 0 mm 0 m/s 743 mmHg 79%
    03:00 +15°C° 0 mm 0 m/s 743 mmHg 80%
    04:00 +15°C° 0 mm 0 m/s 743 mmHg 81%
    05:00 +16°C° 0 mm 0 m/s 743 mmHg 79%
    06:00 +17°C° 0 mm 0 m/s 743 mmHg 77%
    07:00 +17°C° 0 mm 0 m/s 744 mmHg 75%
    08:00 +20°C° 0 mm 0 m/s 744 mmHg 67%
    09:00 +23°C° 0 mm 0 m/s 744 mmHg 58%
    10:00 +25°C° 0 mm 0 m/s 744 mmHg 50%
    11:00 +28°C° 0 mm 1 m/s 744 mmHg 47%
    12:00 +29°C° 0 mm 1 m/s 744 mmHg 45%
    13:00 +30°C° 0 mm 1 m/s 744 mmHg 43%
    14:00 +29°C° 0 mm 1 m/s 744 mmHg 45%
    15:00 +29°C° 0 mm 1 m/s 743 mmHg 48%
    16:00 +28°C° 0 mm 1 m/s 743 mmHg 50%
    17:00 +26°C° 0 mm 1 m/s 743 mmHg 58%
    18:00 +23°C° 0 mm 1 m/s 743 mmHg 66%
    19:00 +19°C° 0 mm 0 m/s 744 mmHg 74%
    20:00 +19°C° 0 mm 0 m/s 744 mmHg 75%
    21:00 +20°C° 0 mm 1 m/s 744 mmHg 76%
    22:00 +20°C° 0 mm 1 m/s 744 mmHg 77%
    23:00 +19°C° 0 mm 1 m/s 744 mmHg 78%

    Mâine, 20 Septembrie, Joi

    Timp Temperatura Precipitaţii Vânt Presiune Umiditate
    00:00 +19°C° 0 mm 1 m/s 744 mmHg 79%
    01:00 +19°C° 0 mm 1 m/s 744 mmHg 80%
    02:00 +18°C° 0 mm 1 m/s 744 mmHg 81%
    03:00 +18°C° 0 mm 1 m/s 743 mmHg 82%
    04:00 +18°C° 0 mm 1 m/s 743 mmHg 83%
    05:00 +18°C° 0 mm 1 m/s 743 mmHg 81%
    06:00 +19°C° 0 mm 1 m/s 744 mmHg 80%
    07:00 +19°C° 0 mm 1 m/s 744 mmHg 79%
    08:00 +22°C° 0 mm 1 m/s 744 mmHg 71%
    09:00 +24°C° 0 mm 1 m/s 744 mmHg 63%
    10:00 +26°C° 0 mm 1 m/s 744 mmHg 55%
    11:00 +27°C° 0 mm 1 m/s 744 mmHg 52%
    12:00 +28°C° 0 mm 2 m/s 744 mmHg 48%
    13:00 +29°C° 0 mm 2 m/s 744 mmHg 45%
    14:00 +29°C° 0 mm 2 m/s 743 mmHg 46%
    15:00 +28°C° 0 mm 1 m/s 743 mmHg 48%
    16:00 +28°C° 0 mm 1 m/s 743 mmHg 49%
    17:00 +26°C° 0 mm 1 m/s 743 mmHg 57%
    18:00 +23°C° 0 mm 1 m/s 743 mmHg 65%
    19:00 +21°C° 0 mm 1 m/s 743 mmHg 73%
    20:00 +20°C° 0 mm 1 m/s 743 mmHg 74%
    21:00 +20°C° 0 mm 1 m/s 743 mmHg 75%
    22:00 +19°C° 0 mm 1 m/s 743 mmHg 77%
    23:00 +19°C° 0 mm 1 m/s 743 mmHg 78%

    Poimâine, 21 Septembrie, Vineri

    Timp Temperatura Precipitaţii Vânt Presiune Umiditate
    00:00 +19°C° 0 mm 1 m/s 743 mmHg 79%
    01:00 +18°C° 0 mm 1 m/s 743 mmHg 79%
    02:00 +18°C° 0 mm 1 m/s 742 mmHg 81%
    03:00 +18°C° 0 mm 1 m/s 742 mmHg 82%
    04:00 +16°C° 0 mm 1 m/s 742 mmHg 83%
    05:00 +18°C° 0 mm 1 m/s 742 mmHg 81%
    06:00 +19°C° 0 mm 1 m/s 742 mmHg 79%
    07:00 +19°C° 0 mm 1 m/s 742 mmHg 77%
    08:00 +22°C° 0 mm 1 m/s 742 mmHg 68%
    09:00 +23°C° 0 mm 0 m/s 743 mmHg 59%
    10:00 +26°C° 0 mm 0 m/s 743 mmHg 49%
    11:00 +29°C° 0 mm 1 m/s 742 mmHg 46%
    12:00 +30°C° 0 mm 1 m/s 742 mmHg 43%
    13:00 +31°C° 0 mm 1 m/s 742 mmHg 39%
    14:00 +30°C° 0 mm 1 m/s 741 mmHg 42%
    15:00 +30°C° 0 mm 1 m/s 741 mmHg 45%
    16:00 +29°C° 0 mm 1 m/s 741 mmHg 47%
    17:00 +27°C° 0 mm 1 m/s 741 mmHg 55%
    18:00 +24°C° 0 mm 1 m/s 741 mmHg 64%
    19:00 +22°C° 0 mm 1 m/s 741 mmHg 72%
    20:00 +21°C° 0 mm 1 m/s 741 mmHg 75%
    21:00 +20°C° 0 mm 1 m/s 741 mmHg 77%
    22:00 +20°C° 0 mm 1 m/s 741 mmHg 80%
    23:00 +20°C° 0 mm 1 m/s 741 mmHg 81%

    22 Septembrie, Sâmbătă

    Timp Temperatura Precipitaţii Vânt Presiune Umiditate
    00:00 +19°C° 0 mm 1 m/s 741 mmHg 81%
    01:00 +19°C° 0 mm 1 m/s 741 mmHg 82%
    02:00 +19°C° 0 mm 1 m/s 741 mmHg 83%
    03:00 +19°C° 0 mm 1 m/s 741 mmHg 84%
    04:00 +18°C° 0 mm 1 m/s 741 mmHg 86%
    05:00 +19°C° 0 mm 1 m/s 741 mmHg 85%
    06:00 +19°C° 0 mm 1 m/s 741 mmHg 84%
    07:00 +20°C° 0 mm 1 m/s 741 mmHg 83%
    08:00 +23°C° 0 mm 1 m/s 741 mmHg 75%
    09:00 +25°C° 0 mm 2 m/s 742 mmHg 66%
    10:00 +28°C° 0 mm 2 m/s 742 mmHg 58%
    11:00 +27°C° 0.7 mm 2 m/s 742 mmHg 61%
    12:00 +27°C° 0.7 mm 2 m/s 742 mmHg 64%
    13:00 +27°C° 0.7 mm 2 m/s 742 mmHg 67%
    14:00 +26°C° 0.8 mm 2 m/s 742 mmHg 70%
    15:00 +25°C° 0.8 mm 2 m/s 742 mmHg 74%
    16:00 +25°C° 0.8 mm 2 m/s 742 mmHg 77%
    17:00 +21°C° 0.3 mm 3 m/s 743 mmHg 78%
    18:00 +18°C° 0.3 mm 3 m/s 743 mmHg 79%
    19:00 +14°C° 0.3 mm 4 m/s 744 mmHg 80%
    20:00 +13°C° 0 mm 4 m/s 745 mmHg 80%
    21:00 +13°C° 0 mm 3 m/s 746 mmHg 80%
    22:00 +12°C° 0 mm 3 m/s 746 mmHg 80%
    23:00 +11°C° 0.3 mm 3 m/s 747 mmHg 81%

    23 Septembrie, Duminică

    Timp Temperatura Precipitaţii Vânt Presiune Umiditate
    00:00 +11°C° 0.3 mm 3 m/s 747 mmHg 83%
    01:00 +11°C° 0.3 mm 3 m/s 747 mmHg 84%
    02:00 +10°C° 0.2 mm 2 m/s 747 mmHg 84%
    03:00 +10°C° 0.2 mm 2 m/s 747 mmHg 85%
    04:00 +10°C° 0.2 mm 2 m/s 746 mmHg 85%
    05:00 +10°C° 0.1 mm 2 m/s 746 mmHg 85%
    06:00 +10°C° 0.1 mm 2 m/s 746 mmHg 85%
    07:00 +10°C° 0.1 mm 2 m/s 746 mmHg 85%
    08:00 +12°C° 0 mm 2 m/s 746 mmHg 78%
    09:00 +14°C° 0 mm 2 m/s 746 mmHg 71%
    10:00 +16°C° 0 mm 1 m/s 746 mmHg 64%
    11:00 +18°C° 0 mm 1 m/s 745 mmHg 61%
    12:00 +20°C° 0 mm 1 m/s 745 mmHg 57%
    13:00 +22°C° 0 mm 1 m/s 744 mmHg 53%
    14:00 +22°C° 0 mm 1 m/s 744 mmHg 55%
    15:00 +23°C° 0 mm 1 m/s 743 mmHg 58%
    16:00 +23°C° 0 mm 1 m/s 742 mmHg 60%
    17:00 +21°C° 0 mm 1 m/s 742 mmHg 68%
    18:00 +19°C° 0 mm 1 m/s 741 mmHg 76%
    19:00 +18°C° 0 mm 1 m/s 741 mmHg 84%
    20:00 +18°C° 0 mm 1 m/s 740 mmHg 86%
    21:00 +18°C° 0 mm 1 m/s 740 mmHg 87%
    22:00 +17°C° 0 mm 2 m/s 739 mmHg 89%
    23:00 +17°C° 0 mm 2 m/s 738 mmHg 89%

    24 Septembrie, Luni

    Timp Temperatura Precipitaţii Vânt Presiune Umiditate
    00:00 +18°C° 0 mm 3 m/s 738 mmHg 89%
    01:00 +18°C° 0 mm 3 m/s 737 mmHg 89%
    02:00 +19°C° 0.1 mm 3 m/s 736 mmHg 88%
    03:00 +19°C° 0.1 mm 4 m/s 736 mmHg 88%
    04:00 +20°C° 0.1 mm 4 m/s 735 mmHg 87%
    05:00 +20°C° 0.2 mm 4 m/s 735 mmHg 86%
    06:00 +20°C° 0.2 mm 4 m/s 735 mmHg 85%
    07:00 +21°C° 0.2 mm 4 m/s 734 mmHg 85%
    08:00 +22°C° 0.6 mm 5 m/s 734 mmHg 82%
    09:00 +22°C° 0.6 mm 5 m/s 734 mmHg 80%
    10:00 +23°C° 0.6 mm 5 m/s 734 mmHg 78%
    11:00 +22°C° 1.4 mm 5 m/s 735 mmHg 79%
    12:00 +21°C° 1.4 mm 5 m/s 735 mmHg 81%
    13:00 +20°C° 1.4 mm 5 m/s 735 mmHg 82%
    14:00 +17°C° 3.7 mm 4 m/s 735 mmHg 86%
    15:00 +13°C° 3.7 mm 3 m/s 735 mmHg 91%
    16:00 +11°C° 3.7 mm 3 m/s 736 mmHg 95%
    17:00 +10°C° 3.3 mm 3 m/s 736 mmHg 95%
    18:00 +10°C° 3.3 mm 3 m/s 737 mmHg 95%
    19:00 +10°C° 3.3 mm 3 m/s 738 mmHg 95%
    20:00 +10°C° 0.1 mm 3 m/s 738 mmHg 94%
    21:00 +10°C° 0.1 mm 2 m/s 739 mmHg 93%
    22:00 +12°C° 0.1 mm 2 m/s 739 mmHg 92%
    23:00 +10°C° 0 mm 2 m/s 740 mmHg 92%
    Arată mai mult